Location: Catacaguana
(10.4120°N, 66.7591°W)
Time: 06:20:41
(UTC+00:00)

CSL-04 Debris - Pass Details

Date: 27 May 2022
Orbit: 826 x 847 km, 98.9° (Epoch: 28 June)

Event Time Altitude Azimuth Distance (km) Brightness Sun altitude
Exits shadow 00:05:22 33° 128° (SE) 1,363 4.7 -19.0°
Maximum altitude 00:07:21 49° 76° (ENE) 1,072 4.4 -19.5°
Drops below altitude 10° 00:12:32 10° 3° (N) 2,438 6.9 -20.6°
Sets 00:14:56 0° 357° (N) 3,368 7.7 -21.1°
